Карточка аэропорта UOOO

Внимание!
Информация на этой странице в стадии наполнения.
Если вы не увидели какой-то информации, или заметили неточность - пожалуйста сообщите нам!
Спасибо!
Команда RU-STAFF
Название аэропортаАлыкель
Название аэропорта (англ.)Alykel
Превышение574 ft. (175 m.)
Координаты69°19.02', 87°19.02'
Высота перехода1200m
Эшелон переходаQFE>744:FL60;744>QFE>717:FL70;717>QFE:FL80
Коды ответчика5401-5427
Зона ОрВДКрасноярск РПИ (UNKL)
Данные METARUOOO 270430Z 16010MPS 1400 0800NE R19/0800D SN BLSN BKN036 M17/M19 Q0989 R19/39//35 NOSIG RMK QFE726/0968
Проноз погоды (TAF)UOOO 270157Z 2703/2803 15010G15MPS 1500 -SN BLSN BKN016 TEMPO 2703/2709 0700 SN BLSN BECMG 2709/2712 14005G11MPS 4000 -SN DRSN TEMPO 2712/2803 1200 SN DRSN
NOTAMshow/hide NOTAM
AWOS   TABLE

Информация о ВПП

ВПП Длина ВПП (м.) Покрытие Курс ВПП Частота ILS
193430Бетон193110.3
013430Бетон13109.5

Диспетчерские позиции

Позывной Наименование органа УВД Частота
UOOO_TWRНорильск - Старт118.300
UOOO_GNDНорильск - Руление121.700
UOOO_APPНорильск - Круг120.400



Спутниковое изображение